Change the Weather History Date:

Monday, July 15, 2013

  Actual Average Record
Temperature  
Mean Temperature 86 °F -  
Max Temperature 91 °F 88 °F 93 °F (2000)
Min Temperature 81 °F 76 °F 72 °F (2004)
Cooling Degree Days 20    
Growing Degree Days 36 (Base 50)    
Moisture  
Dew Point 75 °F    
Average Humidity 74    
Maximum Humidity 85    
Minimum Humidity 63    
Precipitation  
Precipitation 0.00 in - - ()
Sea Level Pressure  
Sea Level Pressure 29.90 in    
Wind  
Wind Speed 15 mph (SE)    
Max Wind Speed 20 mph    
Max Gust Speed 26 mph    
Visibility 10 miles    
Events Rain    
Averages and records for this station are not official NWS values.
T = Trace of Precipitation, MM = Missing Value Source: NWS Daily Summary

Daily Weather History Graph

Daily Weather History Graph

Search for Another Location

Airport or City:

Trip Planner

Search our weather history database for the weather conditions in past years. The results will help you decide how hot, cold, wet, or windy it might be!

Date:

Astronomy

Jul. 15, 2013 Rise Set
Actual Time 6:43 AM CDT 8:26 PM CDT
Civil Twilight 6:17 AM CDT 8:52 PM CDT
Nautical Twilight 5:45 AM CDT 9:24 PM CDT
Astronomical Twilight 5:12 AM CDT 9:56 PM CDT
Moon 1:21 PM CDT (7/15) 12:19 AM CDT (7/15)
Length of Visible Light 14h 35m
Length of Day
13h 43m
Waxing Crescent, 45% of the Moon is Illuminated
Jul 15
Waxing Crescent
Jul 15
First Quarter
Jul 22
Full
Jul 29
Last Quarter
Aug 6
New

Hourly Weather History & Observations

Time (CDT) Temp. Heat Index Dew Point Humidity Pressure Visibility Wind Dir Wind Speed Gust Speed Precip Events Conditions
12:56 AM 82.0 °F 87.9 °F 73.9 °F 76% 29.88 in 10.0 mi SSE 13.8 mph - N/A   Partly Cloudy
1:56 AM 82.0 °F 87.4 °F 73.0 °F 74% 29.86 in 10.0 mi SSE 13.8 mph - N/A   Clear
2:56 AM 82.0 °F 87.9 °F 73.9 °F 76% 29.86 in 10.0 mi SSE 17.3 mph - N/A   Partly Cloudy
3:56 AM 82.0 °F 88.6 °F 75.0 °F 79% 29.86 in 10.0 mi SSE 12.7 mph - N/A   Mostly Cloudy
4:37 AM 82.4 °F 89.5 °F 75.2 °F 79% 29.86 in 10.0 mi SSE 17.3 mph 23.0 mph N/A   Scattered Clouds
4:56 AM 82.0 °F 89.4 °F 75.9 °F 82% 29.86 in 10.0 mi SSE 15.0 mph 21.9 mph N/A   Clear
5:56 AM 82.0 °F 89.4 °F 75.9 °F 82% 29.86 in 10.0 mi South 12.7 mph - N/A   Partly Cloudy
6:56 AM 81.0 °F 86.7 °F 75.0 °F 82% 29.88 in 10.0 mi SSE 11.5 mph - N/A   Mostly Cloudy
7:56 AM 82.9 °F 90.8 °F 75.9 °F 79% 29.88 in 10.0 mi South 11.5 mph - N/A   Mostly Cloudy
8:56 AM 86.0 °F 95.1 °F 75.0 °F 70% 29.90 in 10.0 mi SSE 11.5 mph 21.9 mph N/A   Mostly Cloudy
9:56 AM 84.9 °F 93.3 °F 75.0 °F 72% 29.91 in 10.0 mi SSE 16.1 mph 23.0 mph N/A   Mostly Cloudy
10:56 AM 87.1 °F 96.3 °F 75.0 °F 67% 29.92 in 10.0 mi SE 17.3 mph 23.0 mph N/A   Mostly Cloudy
11:21 AM 86.0 °F 96.9 °F 77.0 °F 74% 29.92 in 10.0 mi SE 13.8 mph 21.9 mph 0.00 in Rain Light Rain
11:29 AM 87.8 °F 97.6 °F 75.2 °F 66% 29.92 in 10.0 mi SE 17.3 mph 21.9 mph 0.00 in   Mostly Cloudy
11:56 AM 87.1 °F 96.3 °F 75.0 °F 67% 29.93 in 10.0 mi SE 16.1 mph 23.0 mph 0.00 in   Mostly Cloudy
12:56 PM 89.1 °F 99.1 °F 75.0 °F 63% 29.93 in 10.0 mi SE 17.3 mph - N/A   Mostly Cloudy
1:56 PM 88.0 °F 98.5 °F 75.9 °F 67% 29.93 in 10.0 mi SE 18.4 mph - N/A   Mostly Cloudy
2:56 PM 89.1 °F 99.1 °F 75.0 °F 63% 29.91 in 10.0 mi SE 18.4 mph - N/A   Mostly Cloudy
3:56 PM 90.0 °F 101.3 °F 75.9 °F 63% 29.89 in 10.0 mi ESE 18.4 mph 26.5 mph N/A   Mostly Cloudy
4:56 PM 89.1 °F 99.1 °F 75.0 °F 63% 29.90 in 10.0 mi ESE 19.6 mph - N/A   Mostly Cloudy
5:56 PM 87.1 °F 97.3 °F 75.9 °F 69% 29.89 in 10.0 mi ESE 19.6 mph - N/A   Mostly Cloudy
6:56 PM 84.9 °F 94.1 °F 75.9 °F 74% 29.90 in 10.0 mi ESE 18.4 mph 26.5 mph N/A   Mostly Cloudy
7:56 PM 84.0 °F 93.7 °F 77.0 °F 79% 29.93 in 10.0 mi ESE 17.3 mph - N/A   Mostly Cloudy
8:56 PM 82.9 °F 90.2 °F 75.0 °F 77% 29.94 in 10.0 mi ESE 15.0 mph - N/A   Mostly Cloudy
9:56 PM 82.9 °F 90.8 °F 75.9 °F 79% 29.95 in 10.0 mi ESE 17.3 mph - N/A   Mostly Cloudy
10:56 PM 82.0 °F 90.2 °F 77.0 °F 85% 29.96 in 10.0 mi ESE 17.3 mph - N/A   Mostly Cloudy
11:56 PM 82.0 °F 89.4 °F 75.9 °F 82% 29.97 in 10.0 mi ESE 13.8 mph - N/A   Mostly Cloudy